Location: Sternwarte_Laufen
(47.9344°N, 12.9346°E)
Time: 12:20:30
(UTC+02:00)

Envisat - Visible Passes

Search period start: 21 August 2018 00:00
Search period end: 31 August 2018 00:00
Orbit: 764 x 766 km, 98.2° (Epoch: 20 August)

Date Brightness Start Highest point End Pass type
(mag) Time Alt. Az. Time Alt. Az. Time Alt. Az.
21 Aug 4.3 20:42:29 10° S 20:47:19 44° W 20:52:11 10° NNW visible
22 Aug 5.8 21:47:57 10° WSW 21:50:15 13° W 21:52:33 10° WNW visible
23 Aug 5.1 21:08:48 10° SSW 21:13:04 27° W 21:17:22 10° NW visible
24 Aug 3.9 20:31:08 10° S 20:36:06 55° W 20:41:06 10° NNW visible
25 Aug 5.7 21:35:48 10° SW 21:38:55 16° W 21:42:04 10° NW visible
26 Aug 4.8 20:57:15 10° SSW 21:01:48 33° W 21:06:23 10° NNW visible
28 Aug 5.6 21:23:55 10° SW 21:27:37 20° W 21:31:20 10° NW visible
29 Aug 4.4 20:45:48 10° SSW 20:50:33 40° W 20:55:22 10° NNW visible
30 Aug 5.9 21:51:42 10° WSW 21:53:32 12° W 21:55:22 10° WNW visible
